User: anonymous   Login
Location: Fort Wayne
(41.1310°N, 85.1290°W)
Time: 13:48:35
(UTC-05:00)
Language:

COSMOS 2406 - Orbit

View from above orbital plane
View from above orbital plane
View from above satellite
View from above satellite

Ground track
Ground track

The orbit data is extracted from the following two-line orbital elements,

1 28352U 04021A   18020.01394353 -.00000199  00000-0 -83586-4 0  9991
2 28352  71.0056  31.9603 0012982 147.2986 212.8941 14.11649386701448
Epoch (UTC): 20 January 2018 00:20:04
Eccentricity: 0.0012982
inclination: 71.0056°
perigee height: 844 km
apogee height: 863 km
right ascension of ascending node: 31.9603°
argument of perigee: 147.2986°
revolutions per day: 14.11649386
mean anomaly at epoch: 212.8941°
orbit number at epoch: 70144

The dashed part of the orbit path shows where the satellite is in the earth's shadow,  

DLR